Flag Weather past 2 weeks in Honolulu, Hawaii, U.S.A.

Now
77 °F

Scattered clouds.


Feels Like: 79 °F
Forecast: 69 / 76 °F
Wind: 16 mph from Northeast

Location: Honolulu International Airport

Current Time: Nov 27, 2014 at 6:16:49 PM

Latest Report: Nov 27, 2014 at 4:53 PM


Visibility: 10 mi

Pressure: 30.01 "Hg

Humidity: 54%

Dew point: 59 °F

Location of HonoluluLocation

Historic Weather in Honolulu — Graph

°F

Honolulu temperature yesterday

Maximum temperature yesterday: 82 °F (at 12:53 PM)
Minimum temperature yesterday: 72 °F (at 2:53 AM)
Average temperature yesterday: 76 °F

Past Weeks' High & Low Weather Summary

 TemperatureHumidityPressure
High86 °F (Nov 20, 1:53 PM)97% (Nov 14, 11:53 PM)30.14 "Hg (Nov 14, 11:53 PM)
Low68 °F (Nov 23, 6:53 AM)45% (Nov 27, 12:53 PM)29.80 "Hg (Nov 15, 2:53 PM)
Average77 °F68%29.98 "Hg
* Reported Nov 12 3:53 PM — Nov 27 3:53 PM, Honolulu, Weather by CustomWeather, © 2014

Note: Actual official high and low records may vary slightly from our data, if they occured in-between our weather recording intervals... More about our weather records

Advertising

Honolulu weather history for previous 24 hours

 ConditionsComfort  
Time TempWeatherWind HumidityBarometerVisibility
3:53 PM
Nov 27
79 °FScattered clouds.21 mph52%30.00 "Hg10 mi
2:53 PM80 °FScattered clouds.15 mph49%29.99 "Hg10 mi
1:53 PM80 °FScattered clouds.18 mph49%30.00 "Hg10 mi
12:53 PM81 °FScattered clouds.22 mph45%30.01 "Hg10 mi
11:53 AM80 °FScattered clouds.18 mph47%30.03 "Hg10 mi
10:53 AM79 °FBroken clouds.15 mph50%30.06 "Hg10 mi
9:53 AM78 °FBroken clouds.20 mph52%30.07 "Hg10 mi
8:53 AM78 °FBroken clouds.12 mph54%30.07 "Hg10 mi
7:53 AM76 °FBroken clouds.14 mph58%30.06 "Hg10 mi
6:53 AM75 °FPartly sunny.15 mph60%30.06 "Hg10 mi
5:53 AM75 °FPassing clouds.12 mph60%30.05 "Hg10 mi
4:53 AM75 °FPassing clouds.15 mph62%30.03 "Hg10 mi
3:53 AM75 °FPassing clouds.14 mph62%30.03 "Hg10 mi
2:53 AM75 °FPassing clouds.10 mph62%30.04 "Hg10 mi
1:53 AM75 °FPassing clouds.13 mph62%30.06 "Hg10 mi
12:53 AM75 °FPartly cloudy.16 mph60%30.07 "Hg10 mi
11:53 PM
Nov 26
75 °FPartly cloudy.10 mph60%30.07 "Hg10 mi
10:53 PM75 °FPassing clouds.15 mph60%30.09 "Hg10 mi
9:53 PM75 °FPassing clouds.13 mph62%30.08 "Hg10 mi
8:53 PM75 °FPassing clouds.12 mph62%30.07 "Hg10 mi
7:53 PM74 °FPassing clouds.10 mph64%30.06 "Hg10 mi
6:53 PM75 °FPassing clouds.12 mph60%30.03 "Hg10 mi
Weather by CustomWeather, © 2014

See weather overviewHow to use our weather pages